Regional Weather Roundup
Issued by NWS

Home | Current Version | Previous Version | Text Only | Print | Product List | Glossary On
Versions: 1 2 3 4 5 6 7 8 9 10 11 12 13 14 15 16 17 18 19 20 21 22 23 24 25 26 27 28 29 30 31 32 33 34 35 36 37 38 39 40 41 42 43 44 45 46 47 48 49 50
000
ASUS46 KPQR 020110
RWROR

OREGON REGIONAL WEATHER ROUNDUP
NATIONAL WEATHER SERVICE PORTLAND OR
600 PM PDT MON SEP 01 2014

NOTE: "FAIR" INDICATES FEW OR NO CLOUDS BELOW 12,000 FEET WITH
NO SIGNIFICANT WEATHER AND/OR OBSTRUCTIONS TO VISIBILITY.

ORZ001>013-020200-
NORTHWEST OREGON


CITY           SKY/WX    TMP DP  RH WIND       PRES   REMARKS
ASTORIA        MOSUNNY   68  60  75 W9        30.04S
NEWPORT        SUNNY     64  61  88 N10G16    30.05F
PORTLAND       MOSUNNY   80  55  42 N8        29.97F
VANCOUVER WA   SUNNY     79  53  40 NW7       29.97F
SCAPPOOSE      MOSUNNY   79  54  41 N8        29.97F
HILLSBORO      PTSUNNY   78  55  44 NE8       29.98F
AURORA         SUNNY     80  52  37 NW3       29.98F
MCMINNVILLE    MOSUNNY   81  54  39 VRB3      29.97F
SALEM          MOSUNNY   82  52  35 N5        29.95F
CORVALLIS      MOSUNNY   84  54  34 N9        29.97S
EUGENE         MOSUNNY   84  51  31 NE14      29.95F
$$

ORZ021-028-020200-
SOUTHWEST OREGON


CITY           SKY/WX    TMP DP  RH WIND       PRES   REMARKS
NORTH BEND     SUNNY     66  61  82 N23G29    29.98F
BROOKINGS      CLEAR     83  57  40 NW12      29.83F
ROSEBURG       SUNNY     87  46  24 N14       29.91F
SEXTON SUMMIT  SUNNY     71  43  36 VRB3      30.04S
MEDFORD        SUNNY     92  37  14 CALM      29.86F
$$

ORZ009-041-020200-
COLUMBIA GORGE


CITY           SKY/WX    TMP DP  RH WIND       PRES   REMARKS
TROUTDALE      SUNNY     80  51  36 VRB3      29.96F
THE DALLES     SUNNY     82  48  30 NW20G30   29.91S
$$

ORZ029>031-042>050-061>064-020200-
EASTERN OREGON


CITY           SKY/WX    TMP DP  RH WIND       PRES   REMARKS
REDMOND        SUNNY     79  37  22 VRB5      29.99F
BEND           CLEAR     77  39  25 CALM      30.02F
KLAMATH FALLS  SUNNY     81  28  14 NW7       30.01F
LAKEVIEW       PTSUNNY   79  32  18 CALM      30.05F
HERMISTON      SUNNY     82  45  27 NW3       29.90F
PENDLETON      SUNNY     79  41  25 N7        29.94F
JOHN DAY       CLEAR     75  37  24 CALM      30.03F
MEACHAM        SUNNY     69  38  32 CALM      30.04F
LA GRANDE      SUNNY     75  39  27 CALM      29.98F
BAKER CITY     SUNNY     72  44  36 NW6       30.02F
BURNS          SUNNY     77  31  18 SE9       30.03F
ROME             N/A     80  32  17 SW5       30.00F
ONTARIO        SUNNY     79  39  23 VRB3      29.98F
$$


USA.gov is the U.S. government's official web portal to all federal, state and local government web resources and services.